Regional Weather Roundup
Issued by NWS Northern Indiana

Home | Current Version | Previous Version | Graphics & Text | Print | Product List | Glossary On
Versions: 1 2 3 4 5 6 7 8 9 10 11 12 13 14 15 16 17 18 19 20 21 22 23 24 25 26 27 28 29 30 31 32 33 34 35 36 37 38 39 40 41 42 43 44 45 46 47 48 49 50
742
ASUS43 KIWX 252010
RWRIWX

KIWX WEATHER ROUNDUP
NATIONAL WEATHER SERVICE NORTHERN INDIANA
400 PM EDT TUE APR 25 2017

NOTE: "FAIR" INDICATES FEW OR NO CLOUDS BELOW 12,000 FEET WITH NO
SIGNIFICANT WEATHER AND/OR OBSTRUCTIONS TO VISIBILITY.

* THESE STATIONS ARE NOT UNDER NWS QUALITY CONTROL. THEY ALSO MAY NOT
  REPORT WEATHER SUCH AS PRECIPITATION OR FOG.

INZ001>027-252100-
NORTHERN INDIANA

CITY           SKY/WX    TMP DP  RH WIND       PRES   REMARKS
GARY*          PTSUNNY   79  41  25 S12G23    29.63F
VALPARAISO     MOSUNNY   78  50  37 S12G21    29.66F
MICHIGAN CITY* MOSUNNY   75  50  41 S13       29.67F
LAPORTE*       CLOUDY    74  53  47 SE10      29.68F
KNOX*          CLOUDY    75  25  15 S15       29.67F
SOUTH BEND     CLOUDY    73  55  53 SE13      29.68F
ELKHART*       MOSUNNY   72  54  53 SE14      29.69F
GOSHEN         MOSUNNY   72  53  51 S9G18     29.70F
MONTICELLO*    SUNNY     76  50  41 S7        29.66F
LOGANSPORT*    MOSUNNY   73  54  49 SE8       29.69F
ROCHESTER*     MOSUNNY   77  54  44 SE7       29.69F
WARSAW*        MOSUNNY   72  54  53 S6        29.70F
ANGOLA*        MOSUNNY   72  55  56 SE8       29.72F
FORT WAYNE     PTSUNNY   73  55  53 SE5       29.71F
HUNTINGTON*    MOSUNNY   73  54  50 S7        29.70F
PERU/GRISSOM   MOSUNNY   75  56  52 SE10      29.68F
MARION*        MOSUNNY   73  54  49 S9        29.71F

$$
INZ028>050-252100-
CENTRAL INDIANA

CITY           SKY/WX    TMP DP  RH WIND       PRES   REMARKS
LAFAYETTE      SUNNY     75  55  49 SE10      29.65F
KOKOMO*        MOSUNNY   75  55  49 S9        29.70F
MUNCIE*        MOSUNNY   75  53  46 SE5       29.70F
INDIANAPOLIS   PTSUNNY   74  54  49 S8        29.68F

$$
MIZ043>046-050>051-056>058-064>065-071>073-077>080-252100-
SOUTHWEST LOWER MICHIGAN

CITY           SKY/WX    TMP DP  RH WIND       PRES   REMARKS
BATTLE CREEK   MOSUNNY   71  55  56 SE13      29.72F
BENTON HARBOR  PTSUNNY   73  52  47 SE12      29.67F
COLDWATER*     CLOUDY    70  55  59 SE7       29.72F
HILLSDALE*     MOSUNNY   68  52  56 SE7       29.74F
HOLLAND        MOSUNNY   73  55  53 S12       29.68F
GRAND RAPIDS   CLOUDY    72  55  55 SE9       29.69F
KALAMAZOO      CLOUDY    72  51  47 S8        29.71F
STURGIS*       MOSUNNY   72  55  55 S7        29.70F
THREE RIVERS*  FAIR      71  55  57 S10       29.70F

$$
OHZ001>008-015>018-024>025-252100-
NORTHWEST OHIO

CITY           SKY/WX    TMP DP  RH WIND       PRES   REMARKS
WAUSEON*       FAIR      77  54  44 SE15      29.73F
DEFIANCE       MOSUNNY   74  53  48 SE10      29.72F
FINDLAY        MOSUNNY   77  52  41 SE7G20    29.71F
TOLEDO EXPRESS CLOUDY    73  56  54 E12       29.73F
TOLEDO METCALF SUNNY     71  57  61 E10       29.75F
LIMA           MOSUNNY   75  54  47 SE13      29.72F

$$
AND FOR LAKE MICHIGAN COASTAL AND OPEN LAKE BUOY OBSERVATIONS

STATION/POSITION TEMP    WIND        PRES    VSBY  WAVE
                 AIR SEA DIR/SP/G                  HT/PER
                 (F)     (DEG/KT/KT) (MB)    (MI)  (FT/S)
CALUMET HARBOR    76     150/  9/ 14 1002.7F
MICHIGAN CITY     72     180/ 13/ 16   N/A
BURNS HARBOR      75     160/  7/ 22 1004.4F
SOUTH LAKE BUOY   48 41  110/  8/  8 1005.5          1/ 3
4 MI NW BRIDGMAN  64 51  170/  8/ 10 1004.5          1

$$
&&




USA.gov is the U.S. government's official web portal to all federal, state and local government web resources and services.